Location: Newark
(41.7772°N, 74.7403°W)
Time: 01:09:27
(UTC+00:00)

Vanguard 2 - Visible Passes

Search period start: 26 May 2020 00:00
Search period end: 05 June 2020 00:00
Orbit: 553 x 2938 km, 32.9° (Epoch: 25 May)

Date Brightness Start Highest point End Pass type
(mag) Time Alt. Az. Time Alt. Az. Time Alt. Az.
26 May 8.6 02:41:22 10° SW 02:47:25 31° S 02:47:25 31° S visible
27 May 9.4 00:49:11 10° SW 00:57:01 27° SSE 01:02:22 10° ESE visible
27 May 8.5 02:59:02 10° WSW 03:04:47 33° SSW 03:04:47 33° SSW visible
28 May 9.2 01:06:23 10° SW 01:14:50 32° S 01:20:23 10° ESE visible
28 May 8.7 03:16:50 10° WSW 03:22:01 32° SSW 03:22:01 32° SSW visible
29 May 9.0 01:23:51 10° WSW 01:32:39 37° S 01:37:43 13° ESE visible
29 May 8.9 03:34:43 10° WSW 03:39:09 28° SW 03:39:09 28° SW visible
30 May 8.8 01:41:31 10° WSW 01:50:25 41° S 01:54:48 17° ESE visible
30 May 9.3 03:52:41 10° WSW 03:56:12 23° SW 03:56:12 23° SW visible
31 May 8.8 01:59:18 10° WSW 02:08:11 42° S 02:11:47 22° SE visible
31 May 9.6 04:10:47 10° WSW 04:13:12 18° WSW 04:13:12 18° WSW visible
01 Jun 8.7 02:17:12 10° WSW 02:25:54 42° S 02:28:43 28° SE visible
01 Jun 10.0 04:29:04 10° WSW 04:30:07 13° WSW 04:30:07 13° WSW visible
02 Jun 8.6 02:35:10 10° W 02:43:34 39° SSW 02:45:36 32° SSE visible
03 Jun 8.7 02:53:13 10° W 03:01:11 35° SSW 03:02:27 32° S visible
04 Jun 9.3 00:58:49 10° WSW 01:10:25 49° S 01:17:26 10° ESE visible
04 Jun 9.0 03:11:21 10° W 03:18:42 29° SSW 03:19:16 29° SSW visible
